Hastings, NE

10:07 PM CST on December 04, 2016 (GMT -0600)
Hastings Municipal

Weather History for KHSI - December, 2011

Change the Weather History Date:

Tuesday, December 20, 2011

  Actual Average Record
Temperature  
Mean Temperature 29 °F 26 °F  
Max Temperature 32 °F 36 °F 64 °F (1941)
Min Temperature 25 °F 17 °F -16 °F (1989)
Degree Days  
Heating Degree Days 36 39  
Month to date heating degree days 786 728  
Since 1 July heating degree days 2016 2009  
Cooling Degree Days 0 0  
Month to date cooling degree days 0 0  
Year to date cooling degree days 1119 1077  
Moisture  
Dew Point 22 °F    
Average Humidity 78    
Maximum Humidity 92    
Minimum Humidity 63    
Precipitation  
Precipitation T in 0.01 in 1.10 in (1918)
Month to date precipitation 0.90 0.46  
Year to date precipitation 27.01 26.96  
Snow  
Snow T in 0.20 in 4.50 in (1983)
Month to date snowfall 8.8 3.8  
Since 1 July snowfall 8.8 7.6  
Snow Depth 0.00 in    
Sea Level Pressure  
Sea Level Pressure 30.01 in    
Wind  
Wind Speed 8 mph (North)    
Max Wind Speed 20 mph    
Max Gust Speed 24 mph    
Visibility 9 miles    
Events Snow    
T = Trace of Precipitation, MM = Missing Value Source: NWS Daily Summary

Daily Weather History Graph

Daily Weather History Graph

Search for Another Location

Airport or City:

Trip Planner

Search our weather history database for the weather conditions in past years. The results will help you decide how hot, cold, wet, or windy it might be!

Date:

Astronomy

Dec. 20, 2011 Rise Set
Actual Time 7:53 AM CST 5:09 PM CST
Civil Twilight 7:22 AM CST 5:40 PM CST
Nautical Twilight 6:47 AM CST 6:14 PM CST
Astronomical Twilight 6:14 AM CST 6:47 PM CST
Moon 3:15 AM CST (12/20) 1:46 PM CST (12/20)
Length of Visible Light 10h 17m
Length of Day
9h 16m
Waning Crescent, 21% of the Moon is Illuminated
Dec 20
Waning Crescent
Dec 24
New
Jan 1
First Quarter
Jan 9
Full
Jan 16
Last Quarter

Hourly Weather History & Observations

Time (CST) Temp. Windchill Dew Point Humidity Pressure Visibility Wind Dir Wind Speed Gust Speed Precip Events Conditions
12:53 AM 28.9 °F 17.7 °F 21.0 °F 72% 30.19 in 10.0 mi NNE 15.0 mph - N/A   Clear
1:53 AM 28.0 °F 16.5 °F 21.0 °F 75% 30.18 in 10.0 mi NNE 15.0 mph - N/A   Scattered Clouds
2:53 AM 28.0 °F 16.5 °F 21.0 °F 75% 30.19 in 10.0 mi NNE 15.0 mph - N/A   Overcast
3:53 AM 26.6 °F 17.5 °F 19.4 °F 74% 30.13 in 10.0 mi NNE 9.2 mph - N/A   Overcast
4:53 AM 27.0 °F 18.7 °F 21.0 °F 78% 30.18 in 10.0 mi North 8.1 mph - N/A   Overcast
5:53 AM 26.1 °F 16.2 °F 19.9 °F 78% 30.15 in 10.0 mi North 10.4 mph - N/A   Overcast
6:53 AM 26.1 °F 15.0 °F 19.9 °F 78% 30.15 in 10.0 mi North 12.7 mph - N/A   Overcast
7:53 AM 26.1 °F 13.6 °F 19.0 °F 75% 30.13 in 10.0 mi North 16.1 mph - N/A   Overcast
8:53 AM 26.1 °F 13.6 °F 19.9 °F 78% 30.12 in 10.0 mi North 16.1 mph - N/A   Overcast
9:53 AM 27.0 °F 18.0 °F 19.0 °F 72% 30.11 in 10.0 mi North 9.2 mph - N/A   Overcast
10:53 AM 27.0 °F 19.5 °F 19.0 °F 72% 30.09 in 10.0 mi North 6.9 mph - N/A   Overcast
11:53 AM 28.9 °F 21.9 °F 19.0 °F 67% 30.06 in 10.0 mi NNE 6.9 mph - N/A   Overcast
12:53 PM 28.0 °F 22.8 °F 21.9 °F 78% 30.01 in 1.8 mi NNE 4.6 mph - 0.00 in Snow Light Snow
1:02 PM 26.6 °F 22.6 °F 23.0 °F 86% 29.94 in 1.0 mi NE 3.5 mph - 0.00 in Snow Light Snow
1:34 PM 28.4 °F 22.2 °F 26.6 °F 93% 29.91 in 2.5 mi East 5.8 mph - 0.00 in Snow Light Snow
1:42 PM 30.2 °F 24.3 °F 26.6 °F 86% 29.91 in 6.0 mi East 5.8 mph - 0.00 in Snow Light Snow
1:53 PM 30.0 °F 26.5 °F 27.0 °F 88% 29.96 in 10.0 mi ENE 3.5 mph - 0.00 in   Overcast
2:53 PM 30.9 °F - 26.1 °F 82% 29.93 in 10.0 mi Calm Calm - N/A   Overcast
3:53 PM 30.9 °F 27.5 °F 26.1 °F 82% 29.92 in 10.0 mi WNW 3.5 mph - N/A   Overcast
4:53 PM 30.0 °F 26.5 °F 26.1 °F 85% 29.91 in 10.0 mi SSW 3.5 mph - N/A   Overcast
5:53 PM 27.0 °F 23.0 °F 24.1 °F 89% 29.91 in 10.0 mi SW 3.5 mph - N/A   Clear
6:53 PM 27.0 °F 23.0 °F 23.0 °F 85% 29.89 in 10.0 mi SSW 3.5 mph - N/A   Clear
7:53 PM 28.0 °F 24.2 °F 23.0 °F 81% 29.88 in 10.0 mi WSW 3.5 mph - N/A   Overcast
8:53 PM 27.0 °F 21.6 °F 21.0 °F 78% 29.86 in 10.0 mi SW 4.6 mph - N/A   Clear
9:53 PM 28.0 °F 20.0 °F 18.0 °F 66% 29.85 in 10.0 mi SW 8.1 mph - N/A   Clear
10:53 PM 25.0 °F 18.1 °F 18.0 °F 75% 29.84 in 10.0 mi SW 5.8 mph - N/A   Clear
11:53 PM 26.1 °F 18.4 °F 18.0 °F 71% 29.81 in 10.0 mi SSW 6.9 mph - N/A   Clear